Regional Weather Roundup
Issued by NWS Huntsville, AL

Home | Current Version | Previous Version | Text Only | Print | Product List | Glossary On
Versions: 1 2 3 4 5 6 7 8 9 10 11 12 13 14 15 16 17 18 19 20 21 22 23 24 25 26 27
000
ASUS44 KHUN 191210
RWRHUN

WEATHER ROUNDUP FOR THE TENNESSEE VALLEY
NATIONAL WEATHER SERVICE HUNTSVILLE AL
700 AM CDT TUE SEP 19 2017

ALZ001>004-191300-
NORTHWEST ALABAMA

CITY           SKY/WX    TMP DP  RH WIND       PRES   REMARKS
COURTLAND HCN    N/A     66 N/A N/A CALM        N/A
RUSSELLVILLE     N/A     64 N/A N/A MISG        N/A
SHOALS AIRPORT PTCLDY    69  66  90 E3        29.99R FOG
6HR MIN TEMP:  67; 6HR MAX TEMP:  71;

SHOALS TVA RES   N/A     66 N/A N/A MISG        N/A
$$

ALZ005>007-016-191300-
NORTH CENTRAL ALABAMA

CITY           SKY/WX    TMP DP  RH WIND       PRES   REMARKS
CULLMAN AG STN   N/A     63 N/A N/A CALM        N/A
DECATUR AP     CLEAR     66  66 100 CALM      30.00R FOG
6HR MIN TEMP:  64; 6HR MAX TEMP:  67;

HUNTSVILLE AP  PTCLDY    68  68 100 E5        29.99R
6HR MIN TEMP:  68; 6HR MAX TEMP:  72;

MERIDIANVILLE  CLEAR     63  61  94 CALM      30.00S FOG
REDSTONE ARSN  CLEAR     66  66 100 CALM      29.99R
VINEMONT AP    FAIR      64  63  98 CALM      30.03R FOG
$$

ALZ008>010-191300-
NORTHEAST ALABAMA

CITY           SKY/WX    TMP DP  RH WIND       PRES   REMARKS
ALBERTVILLE    CLEAR     64  64 100 CALM      30.01R FOG
FORT PAYNE     CLEAR     59  57  94 NE3       30.02R FOG
SCOTTSBORO HCN   N/A     66 N/A N/A MISG        N/A
VALLEY HEAD      N/A     59 N/A N/A MISG        N/A
$$

TNZ076-096-097-191300-
SOUTHEASTERN MIDDLE TENNESSEE

CITY           SKY/WX    TMP DP  RH WIND       PRES   REMARKS
TULLAHOMA      CLEAR     64  61  88 CALM      30.02S
WINCHESTER     CLEAR     64  63  94 CALM      30.02R
$$

...SURROUNDING SITES...

CITY           SKY/WX    TMP DP  RH WIND       PRES   REMARKS
ATLANTA        PTCLDY    67  64  90 NW5       30.03R
ANNISTON       CLEAR     66  64  93 CALM      30.01S
BIRMINGHAM     PTCLDY    70  67  90 CALM      30.02R
CHATTANOOGA    PTCLDY    65  62  90 CALM      30.03R
DALTON         CLOUDY    61  61 100 CALM      30.04R
GADSDEN        CLEAR     63  63 100 CALM      30.02R FOG
GOLDEN TRNGL   FOG       72  70  94 CALM      29.93  VSB 1/4
HALEYVILLE     CLOUDY    67  67 100 CALM      30.02S
JACKSON TN     CLEAR     68  68 100 CALM      29.97R FOG
MEMPHIS        PTCLDY    70  69  97 CALM      29.96R
NASHVILLE      PTCLDY    68  65  90 SE3       29.99R
OXFORD MS      FAIR      66  66 100 CALM      29.99R
ROME           CLEAR     63  63 100 CALM      30.02R FOG
SAVANNAH       CLEAR     68  68 100 CALM      29.96R
SELMER         CLEAR     72  70  94 CALM      29.96R
TUPELO         PTCLDY    72  69  90 NE5       29.97R
TUSCALOOSA     CLEAR     70  70 100 CALM      29.98R FOG
$$

...GULF COAST WEATHER...

CITY           SKY/WX    TMP DP  RH WIND       PRES   REMARKS
GULFPORT       CLOUDY    78  75  90 CALM      29.98R
PASCAGOULA     CLOUDY    76  73  91 SE5       30.00R
MOBILE         PTCLDY    76  74  93 SW3       30.00R
GULF SHORES    SUNNY     71  71 100 CALM      29.99R FOG
PENSACOLA      PTCLDY    73  71  93 CALM      29.98R
DESTIN         CLEAR     79  73  82 CALM      29.98R
PANAMA CITY    PTCLDY    75  74  97 SE3       29.99R
APPALACHICOLA  CLEAR     72  72 100 CALM      29.99R
$$





USA.gov is the U.S. government's official web portal to all federal, state and local government web resources and services.